New York, NY

7:25 AM EST on November 24, 2017 (GMT -0500)
La Guardia

Weather History for KLGA - April, 2013

Change the Weather History Date:

Friday, April 26, 2013

  Actual Average Record
Temperature  
Mean Temperature 59 °F 56 °F  
Max Temperature 66 °F 65 °F 91 °F (2009)
Min Temperature 51 °F 48 °F 37 °F (1972)
Degree Days  
Heating Degree Days 6 9  
Month to date heating degree days 335 344  
Since 1 July heating degree days 4282 4480  
Cooling Degree Days 0 0  
Month to date cooling degree days 0 0  
Year to date cooling degree days 0 0  
Growing Degree Days 8 (Base 50)    
Moisture  
Dew Point 30 °F    
Average Humidity 37    
Maximum Humidity 54    
Minimum Humidity 19    
Precipitation  
Precipitation 0.00 in 0.13 in 1.33 in (1973)
Month to date precipitation 1.12 3.51  
Year to date precipitation 9.39 13.41  
Snow  
Snow 0.00 in 0.00 in - ()
Month to date snowfall 0.0 0.5  
Since 1 July snowfall 22.2 26.9  
Snow Depth 0.00 in    
Sea Level Pressure  
Sea Level Pressure 30.34 in    
Wind  
Wind Speed 7 mph (NW)    
Max Wind Speed 16 mph    
Max Gust Speed 23 mph    
Visibility 10 miles    
Events      
T = Trace of Precipitation, MM = Missing Value Source: NWS Daily Summary

Daily Weather History Graph

Daily Weather History Graph

Search for Another Location

Airport or City:

Trip Planner

Search our weather history database for the weather conditions in past years. The results will help you decide how hot, cold, wet, or windy it might be!

Date:

Astronomy

Apr. 26, 2013 Rise Set
Actual Time 6:00 AM EDT 7:46 PM EDT
Civil Twilight 5:31 AM EDT 8:16 PM EDT
Nautical Twilight 4:55 AM EDT 8:51 PM EDT
Astronomical Twilight 4:17 AM EDT 9:30 PM EDT
Moon 9:06 PM EDT (4/26) 6:25 AM EDT (4/26)
Length of Visible Light 14h 45m
Length of Day
13h 46m
Full, 99% of the Moon is Illuminated
Apr 26
Full
May 2
Last Quarter
May 9
New
May 18
First Quarter
May 25
Full

Hourly Weather History & Observations

Time (EDT) Temp. Dew Point Humidity Pressure Visibility Wind Dir Wind Speed Gust Speed Precip Events Conditions
12:51 AM 54.0 °F 33.1 °F 45% 30.27 in 10.0 mi SSW 6.9 mph - N/A   Partly Cloudy
1:51 AM 53.1 °F 34.0 °F 48% 30.26 in 10.0 mi Calm Calm - N/A   Scattered Clouds
2:51 AM 53.1 °F 33.1 °F 47% 30.27 in 10.0 mi Calm Calm - N/A   Clear
3:51 AM 51.1 °F 36.0 °F 56% 30.28 in 10.0 mi Calm Calm - N/A   Partly Cloudy
4:51 AM 54.0 °F 30.0 °F 40% 30.30 in 10.0 mi WNW 6.9 mph - N/A   Clear
5:51 AM 52.0 °F 34.0 °F 50% 30.32 in 10.0 mi NW 4.6 mph - N/A   Partly Cloudy
6:51 AM 53.1 °F 30.0 °F 41% 30.35 in 10.0 mi NNW 6.9 mph - N/A   Partly Cloudy
7:51 AM 54.0 °F 30.0 °F 40% 30.37 in 10.0 mi NW 9.2 mph - N/A   Partly Cloudy
8:51 AM 54.0 °F 32.0 °F 43% 30.39 in 10.0 mi NW 16.1 mph - N/A   Clear
9:51 AM 55.9 °F 33.1 °F 42% 30.39 in 10.0 mi NNW 13.8 mph - N/A   Clear
10:51 AM 57.9 °F 33.1 °F 39% 30.39 in 10.0 mi NW 9.2 mph - N/A   Clear
11:51 AM 60.1 °F 30.0 °F 32% 30.38 in 10.0 mi WNW 4.6 mph - N/A   Partly Cloudy
12:51 PM 62.1 °F 30.9 °F 31% 30.36 in 10.0 mi Variable 5.8 mph - N/A   Partly Cloudy
1:51 PM 64.0 °F 28.9 °F 27% 30.35 in 10.0 mi WNW 8.1 mph - N/A   Partly Cloudy
2:51 PM 64.0 °F 27.0 °F 25% 30.34 in 10.0 mi NW 10.4 mph - N/A   Partly Cloudy
3:51 PM 64.9 °F 25.0 °F 22% 30.33 in 10.0 mi NW 9.2 mph - N/A   Partly Cloudy
4:51 PM 64.9 °F 21.9 °F 19% 30.32 in 10.0 mi North 6.9 mph - N/A   Scattered Clouds
5:51 PM 64.9 °F 21.9 °F 19% 30.33 in 10.0 mi NNE 4.6 mph - N/A   Scattered Clouds
6:51 PM 64.0 °F 26.1 °F 24% 30.34 in 10.0 mi ENE 9.2 mph - N/A   Scattered Clouds
7:51 PM 61.0 °F 28.9 °F 30% 30.35 in 10.0 mi South 9.2 mph - N/A   Scattered Clouds
8:51 PM 59.0 °F 30.0 °F 33% 30.37 in 10.0 mi South 6.9 mph - N/A   Scattered Clouds
9:51 PM 57.0 °F 32.0 °F 39% 30.38 in 10.0 mi SSE 4.6 mph - N/A   Scattered Clouds
10:51 PM 55.9 °F 33.1 °F 42% 30.38 in 10.0 mi NNE 8.1 mph - N/A   Partly Cloudy
11:51 PM 55.0 °F 32.0 °F 42% 30.40 in 10.0 mi NNE 9.2 mph - N/A   Scattered Clouds